Date String (YYYY-MM-DD hh:mm:ss) UTC,Instrument flags,Ambient pressure (hPa),Sample flow (lpm),Bypass flow (lpm),Sample temperature (°C),Ambient temperature (°C),ASC tube jacket temperature (°C),LED temperature (°C),Box temperature (°C),Sample RH (%),Span deviation,Mass concentration (μg/m³),Mass concentration (μg/m³),Mass concentration (μg/m³)
DateTimeUTC,F1_M11,P_M11,Q1_M11,Q2_M11,T1_M11,T2_M11,T3_M11,T4_M11,T5_M11,U1_M11,ZSPAN_M11,X0_M11,X2_M11,X1_M11
2022-10-25 04:00:00,,0821.1,5.00,0.00,23.3,21.6,00.0,32.2,25.0,07.2,0000.0,0004.06,0002.57,0002.21
2022-10-25 04:01:00,,0821.1,5.00,0.00,23.3,21.6,00.0,32.2,25.0,07.3,0000.0,0004.08,0002.58,0002.20
2022-10-25 04:02:00,,0821.2,5.00,0.00,23.3,21.6,00.0,32.2,25.0,07.3,0000.0,0004.02,0002.55,0002.19
2022-10-25 04:03:00,,0821.1,5.01,0.00,23.2,21.6,00.0,32.2,25.0,07.4,0000.0,0004.01,0002.53,0002.17
2022-10-25 04:04:00,,0821.2,4.98,0.00,23.2,21.6,00.0,32.2,25.1,07.4,0000.0,0003.96,0002.52,0002.16
2022-10-25 04:05:00,,0821.1,5.01,0.00,23.2,21.6,00.0,32.2,25.1,07.5,0000.0,0004.13,0002.47,0002.15
2022-10-25 04:06:00,,0821.1,5.00,0.00,23.2,21.7,00.0,32.1,25.1,07.5,0000.0,0004.19,0002.48,0002.13
2022-10-25 04:07:00,,0821.2,5.00,0.00,23.3,21.7,00.0,32.1,25.1,07.5,0000.0,0004.66,0002.50,0002.12
2022-10-25 04:08:00,,0821.1,4.99,0.00,23.2,21.6,00.0,32.1,25.1,07.6,0000.0,0004.63,0002.47,0002.11
2022-10-25 04:09:00,,0821.1,5.00,0.00,23.2,21.5,00.0,32.1,25.0,07.6,0000.0,0004.49,0002.43,0002.11
2022-10-25 04:10:00,,0821.2,5.01,0.00,23.2,21.5,00.0,32.1,25.0,07.7,0000.0,0004.46,0002.41,0002.11
2022-10-25 04:11:00,,0821.1,5.01,0.00,23.2,21.4,00.0,32.1,25.0,07.7,0000.0,0004.55,0002.41,0002.11
2022-10-25 04:12:00,,0821.2,5.01,0.00,23.1,21.4,00.0,32.1,24.9,07.8,0000.0,0004.48,0002.39,0002.10
2022-10-25 04:13:00,,0821.1,4.98,0.00,23.1,21.3,00.0,32.1,24.9,07.9,0000.0,0004.58,0002.41,0002.09
2022-10-25 04:14:00,,0821.1,5.02,0.00,23.1,21.3,00.0,32.0,24.8,07.9,0000.0,0004.71,0002.45,0002.10
2022-10-25 04:15:00,,0821.1,4.99,0.00,23.0,21.2,00.0,32.0,24.8,08.0,0000.0,0004.81,0002.49,0002.10
2022-10-25 04:16:00,,0821.1,5.02,0.00,23.0,21.1,00.0,32.0,24.8,08.1,0000.0,0004.68,0002.51,0002.11
2022-10-25 04:17:00,,0821.0,4.98,0.00,23.0,21.1,00.0,32.0,24.7,08.0,0000.0,0004.71,0002.50,0002.11
2022-10-25 04:18:00,,0821.0,5.00,0.00,22.9,21.0,00.0,32.0,24.7,08.0,0000.0,0004.83,0002.47,0002.11
2022-10-25 04:19:00,,0821.0,5.01,0.00,22.9,20.9,00.0,31.9,24.6,08.0,0000.0,0005.38,0002.45,0002.10
2022-10-25 04:20:00,,0821.0,5.00,0.00,22.8,20.9,00.0,31.9,24.5,08.0,0000.0,0005.46,0002.48,0002.11
2022-10-25 04:21:00,,0821.1,4.98,0.00,22.8,20.9,00.0,31.9,24.5,08.0,0000.0,0005.68,0002.54,0002.12
2022-10-25 04:22:00,,0821.1,5.00,0.00,22.8,20.9,00.0,31.9,24.6,08.0,0000.0,0005.68,0002.56,0002.13
2022-10-25 04:23:00,,0821.0,5.02,0.00,22.8,20.9,00.0,31.8,24.6,08.0,0000.0,0005.82,0002.61,0002.15
2022-10-25 04:24:00,,0821.1,5.00,0.00,22.8,20.9,00.0,31.8,24.7,08.1,0000.0,0005.72,0002.57,0002.15
2022-10-25 04:25:00,,0821.1,4.98,0.00,22.8,20.9,00.0,31.8,24.6,08.1,0000.0,0005.59,0002.54,0002.16
2022-10-25 04:26:00,,0821.1,5.00,0.00,22.8,20.9,00.0,31.8,24.6,08.2,0000.0,0005.41,0002.50,0002.15
2022-10-25 04:27:00,,0821.1,5.01,0.00,22.8,20.9,00.0,31.8,24.6,08.2,0000.0,0005.17,0002.47,0002.14
2022-10-25 04:28:00,,0821.0,5.01,0.00,22.8,20.9,00.0,31.7,24.6,08.2,0000.0,0004.86,0002.48,0002.14
2022-10-25 04:29:00,,0821.0,5.01,0.00,22.8,21.0,00.0,31.7,24.6,08.2,0000.0,0004.41,0002.50,0002.13
2022-10-25 04:30:00,,0821.0,5.01,0.00,22.8,21.1,00.0,31.7,24.7,08.2,0000.0,0003.56,0002.49,0002.13
2022-10-25 04:31:00,,0821.0,4.98,0.00,22.8,21.1,00.0,31.7,24.7,08.2,0000.0,0003.47,0002.46,0002.13
2022-10-25 04:32:00,,0820.9,5.00,0.00,22.8,21.1,00.0,31.7,24.7,08.2,0000.0,0003.23,0002.41,0002.14
2022-10-25 04:33:00,,0820.9,5.00,0.00,22.8,21.2,00.0,31.7,24.7,08.2,0000.0,0003.09,0002.39,0002.15
2022-10-25 04:34:00,,0820.9,5.00,0.00,22.8,21.2,00.0,31.7,24.7,08.2,0000.0,0002.96,0002.34,0002.12
2022-10-25 04:35:00,,0820.9,4.99,0.00,22.8,21.2,00.0,31.7,24.7,08.1,0000.0,0003.41,0002.35,0002.12
2022-10-25 04:36:00,,0821.0,5.00,0.00,22.8,21.3,00.0,31.7,24.7,08.1,0000.0,0003.70,0002.39,0002.11
2022-10-25 04:37:00,,0820.9,5.01,0.00,22.8,21.3,00.0,31.7,24.7,08.1,0000.0,0003.82,0002.46,0002.11
2022-10-25 04:38:00,,0820.9,5.00,0.00,22.8,21.3,00.0,31.7,24.7,08.0,0000.0,0003.91,0002.49,0002.13
2022-10-25 04:39:00,,0820.9,4.99,0.00,22.8,21.4,00.0,31.7,24.8,08.0,0000.0,0003.94,0002.51,0002.14
2022-10-25 04:40:00,,0820.9,5.01,0.00,22.8,21.4,00.0,31.7,24.8,08.1,0000.0,0003.86,0002.49,0002.13
2022-10-25 04:41:00,,0820.9,5.01,0.00,22.9,21.3,00.0,31.7,24.7,08.1,0000.0,0003.88,0002.50,0002.15
2022-10-25 04:42:00,,0820.9,5.01,0.00,22.8,21.3,00.0,31.7,24.8,08.1,0000.0,0004.02,0002.55,0002.15
2022-10-25 04:43:00,,0820.9,4.98,0.00,22.8,21.3,00.0,31.7,24.7,08.1,0000.0,0004.08,0002.56,0002.14
2022-10-25 04:44:00,,0821.0,5.00,0.00,22.8,21.2,00.0,31.7,24.7,08.1,0000.0,0004.20,0002.58,0002.15
2022-10-25 04:45:00,,0820.9,5.01,0.00,22.8,21.2,00.0,31.7,24.7,08.0,0000.0,0004.23,0002.60,0002.17
2022-10-25 04:46:00,,0820.9,5.00,0.00,22.8,21.1,00.0,31.7,24.7,07.9,0000.0,0003.96,0002.61,0002.18
2022-10-25 04:47:00,,0820.9,5.00,0.00,22.8,21.1,00.0,31.7,24.7,07.9,0000.0,0003.64,0002.59,0002.19
2022-10-25 04:48:00,,0820.9,4.98,0.00,22.8,21.0,00.0,31.7,24.7,08.0,0000.0,0003.53,0002.51,0002.18
2022-10-25 04:49:00,,0820.9,5.00,0.00,22.8,21.0,00.0,31.7,24.6,08.0,0000.0,0004.09,0002.51,0002.17
2022-10-25 04:50:00,,0820.9,5.00,0.00,22.8,20.9,00.0,31.6,24.6,08.0,0000.0,0004.07,0002.49,0002.18
2022-10-25 04:51:00,,0821.0,5.01,0.00,22.7,20.8,00.0,31.6,24.6,08.0,0000.0,0004.06,0002.48,0002.18
2022-10-25 04:52:00,,0821.0,4.98,0.00,22.7,20.8,00.0,31.6,24.5,08.0,0000.0,0004.06,0002.48,0002.18
2022-10-25 04:53:00,,0821.0,5.02,0.00,22.7,20.9,00.0,31.6,24.6,08.0,0000.0,0003.94,0002.43,0002.18
2022-10-25 04:54:00,,0821.0,4.98,0.00,22.7,20.9,00.0,31.6,24.5,08.1,0000.0,0003.93,0002.41,0002.16
2022-10-25 04:55:00,,0820.9,5.01,0.00,22.7,20.9,00.0,31.6,24.5,08.1,0000.0,0003.78,0002.37,0002.15
2022-10-25 04:56:00,,0820.9,5.00,0.00,22.7,21.0,00.0,31.6,24.6,08.0,0000.0,0003.73,0002.35,0002.13
2022-10-25 04:57:00,,0821.0,4.98,0.00,22.7,21.0,00.0,31.6,24.6,08.1,0000.0,0003.71,0002.38,0002.13
2022-10-25 04:58:00,,0821.0,5.00,0.00,22.7,21.0,00.0,31.6,24.6,08.2,0000.0,0003.80,0002.40,0002.13
2022-10-25 04:59:00,,0821.0,5.01,0.00,22.7,21.0,00.0,31.6,24.6,08.2,0000.0,0004.57,0002.44,0002.13
